Dubuque, IA

8:39 AM CDT on April 28, 2017 (GMT -0500)
Dubuque Regional

Weather History for KDBQ - March, 2013

Change the Weather History Date:

Monday, March 11, 2013

  Actual Average Record
Temperature  
Mean Temperature 30 °F 33 °F  
Max Temperature 33 °F 42 °F 68 °F (2006)
Min Temperature 26 °F 25 °F -5 °F (1948)
Degree Days  
Heating Degree Days 35 32  
Month to date heating degree days 449 374  
Since 1 July heating degree days 5699 5767  
Cooling Degree Days 0 0  
Month to date cooling degree days 0 0  
Year to date cooling degree days 0 0  
Moisture  
Dew Point 30 °F    
Average Humidity 92    
Maximum Humidity 100    
Minimum Humidity 84    
Precipitation  
Precipitation 0.02 in 0.07 in 1.17 in (1962)
Month to date precipitation 2.02 0.74  
Year to date precipitation 5.44 3.35  
Snow  
Snow 0.20 in 0.20 in - ()
Month to date snowfall 6.6 2.6  
Since 1 July snowfall 48.5 36.2  
Snow Depth 2.00 in    
Sea Level Pressure  
Sea Level Pressure 29.67 in    
Wind  
Wind Speed 13 mph (NNW)    
Max Wind Speed 22 mph    
Max Gust Speed 26 mph    
Visibility 6 miles    
Events Fog , Snow    
T = Trace of Precipitation, MM = Missing Value Source: NWS Daily Summary

Daily Weather History Graph

Daily Weather History Graph

Search for Another Location

Airport or City:

Trip Planner

Search our weather history database for the weather conditions in past years. The results will help you decide how hot, cold, wet, or windy it might be!

Date:

Astronomy

Mar. 11, 2013 Rise Set
Actual Time 7:21 AM CDT 7:04 PM CDT
Civil Twilight 6:53 AM CDT 7:32 PM CDT
Nautical Twilight 6:20 AM CDT 8:05 PM CDT
Astronomical Twilight 5:47 AM CDT 8:38 PM CDT
Moon 6:54 AM CDT (3/11) 7:18 PM CDT (3/11)
Length of Visible Light 12h 39m
Length of Day
11h 43m
Waning Crescent, 0% of the Moon is Illuminated
Mar 11
Waning Crescent
Mar 11
New
Mar 19
First Quarter
Mar 27
Full
Apr 2
Last Quarter

Hourly Weather History & Observations

Time (CDT) Temp. Windchill Dew Point Humidity Pressure Visibility Wind Dir Wind Speed Gust Speed Precip Events Conditions
12:53 AM 33.1 °F 24.4 °F 33.1 °F 100% 29.66 in 3.0 mi NNE 11.5 mph - N/A   Overcast
1:29 AM 33.8 °F 25.8 °F 33.8 °F 100% 29.61 in 1.8 mi NNE 10.4 mph - N/A   Overcast
1:39 AM 33.8 °F 28.6 °F 33.8 °F 100% 29.62 in 0.5 mi NNE 5.8 mph - N/A Fog Fog
1:53 AM 33.1 °F 25.5 °F 33.1 °F 100% 29.65 in 1.8 mi NNE 9.2 mph - N/A   Overcast
2:04 AM 33.8 °F 27.0 °F 33.8 °F 100% 29.62 in 2.0 mi NNE 8.1 mph - N/A   Overcast
2:13 AM 33.8 °F 26.4 °F 33.8 °F 100% 29.62 in 1.5 mi NNE 9.2 mph - N/A   Overcast
2:25 AM 33.8 °F 27.0 °F 33.8 °F 100% 29.62 in 0.8 mi NNE 8.1 mph - N/A   Mist
2:45 AM 33.8 °F 25.8 °F 33.8 °F 100% 29.62 in 1.2 mi NNE 10.4 mph - N/A   Overcast
2:53 AM 33.1 °F 26.1 °F 33.1 °F 100% 29.65 in 1.2 mi NNE 8.1 mph - N/A   Overcast
3:14 AM 33.8 °F 27.0 °F 33.8 °F 100% 29.61 in 0.8 mi North 8.1 mph - N/A   Mist
3:53 AM 32.0 °F 23.6 °F 32.0 °F 100% 29.62 in 0.5 mi NNE 10.4 mph - N/A Fog Fog
4:53 AM 32.0 °F 22.5 °F 32.0 °F 100% 29.61 in 0.5 mi North 12.7 mph - N/A Fog Fog
5:22 AM 32.0 °F 22.5 °F 32.0 °F 100% 29.59 in 1.2 mi North 12.7 mph - N/A   Overcast
5:38 AM 32.0 °F 23.6 °F 32.0 °F 100% 29.59 in 2.5 mi North 10.4 mph - N/A   Overcast
5:53 AM 32.0 °F 24.2 °F 32.0 °F 100% 29.62 in 2.5 mi North 9.2 mph - N/A   Overcast
6:04 AM 32.0 °F 24.8 °F 32.0 °F 100% 29.60 in 3.0 mi North 8.1 mph - N/A   Overcast
6:53 AM 32.0 °F 23.0 °F 32.0 °F 100% 29.64 in 6.0 mi North 11.5 mph - N/A   Overcast
7:53 AM 30.9 °F 22.8 °F 30.9 °F 100% 29.66 in 10.0 mi North 9.2 mph - 0.00 in   Overcast
8:32 AM 30.2 °F 21.9 °F 30.2 °F 100% 29.62 in 10.0 mi North 9.2 mph - N/A   Overcast
8:53 AM 30.9 °F 22.8 °F 30.9 °F 100% 29.65 in 8.0 mi North 9.2 mph - N/A   Overcast
9:35 AM 30.2 °F 20.8 °F 30.2 °F 100% 29.61 in 8.0 mi North 11.5 mph - N/A   Overcast
9:53 AM 30.9 °F 22.8 °F 30.0 °F 96% 29.64 in 10.0 mi North 9.2 mph - N/A   Overcast
10:53 AM 30.9 °F 22.2 °F 28.9 °F 92% 29.65 in 10.0 mi NNW 10.4 mph - N/A   Overcast
11:01 AM 30.2 °F 20.8 °F 28.4 °F 93% 29.62 in 10.0 mi NNW 11.5 mph - N/A   Overcast
11:53 AM 30.9 °F 21.7 °F 28.9 °F 92% 29.65 in 10.0 mi NNW 11.5 mph - N/A   Overcast
12:17 PM 30.2 °F 20.8 °F 28.4 °F 93% 29.62 in 9.0 mi NW 11.5 mph - N/A   Overcast
12:53 PM 30.0 °F 20.5 °F 28.9 °F 96% 29.66 in 8.0 mi NW 11.5 mph - N/A   Overcast
1:53 PM 30.9 °F 22.8 °F 28.9 °F 92% 29.65 in 6.0 mi NW 9.2 mph - N/A   Overcast
2:07 PM 30.2 °F 21.3 °F 28.4 °F 93% 29.62 in 10.0 mi WNW 10.4 mph - N/A   Overcast
2:53 PM 30.9 °F 19.1 °F 28.0 °F 89% 29.66 in 10.0 mi WNW 18.4 mph - N/A   Overcast
3:46 PM 30.2 °F 18.9 °F 26.6 °F 86% 29.64 in 5.0 mi NW 16.1 mph 21.9 mph 0.00 in Snow Light Snow
3:53 PM 30.9 °F 21.2 °F 28.0 °F 89% 29.67 in 5.0 mi NW 12.7 mph - 0.00 in Snow Light Snow
4:53 PM 30.9 °F 19.8 °F 28.0 °F 89% 29.69 in 6.0 mi NW 16.1 mph - 0.00 in Snow Light Snow
5:09 PM 30.2 °F 19.8 °F 28.4 °F 93% 29.66 in 2.5 mi WNW 13.8 mph - 0.00 in Snow Light Snow
5:21 PM 30.2 °F 18.1 °F 28.4 °F 93% 29.67 in 1.8 mi WNW 18.4 mph - 0.00 in Snow Light Snow
5:34 PM 30.2 °F 18.9 °F 28.4 °F 93% 29.67 in 3.0 mi WNW 16.1 mph 23.0 mph 0.00 in Snow Light Snow
5:53 PM 30.2 °F 17.8 °F 26.6 °F 86% 29.69 in 10.0 mi WNW 19.6 mph - N/A   Overcast
6:51 PM 30.2 °F 18.1 °F 26.6 °F 86% 29.72 in 10.0 mi WNW 18.4 mph - N/A   Overcast
6:53 PM 30.0 °F 17.5 °F 26.1 °F 85% 29.76 in 10.0 mi WNW 19.6 mph - N/A   Overcast
7:36 PM 28.4 °F 16.6 °F 26.6 °F 93% 29.74 in 10.0 mi WNW 16.1 mph - N/A   Overcast
7:53 PM 28.9 °F 17.7 °F 25.0 °F 85% 29.78 in 10.0 mi WNW 15.0 mph - N/A   Overcast
8:53 PM 28.9 °F 15.8 °F 25.0 °F 85% 29.81 in 10.0 mi WNW 20.7 mph 24.2 mph N/A   Overcast
9:53 PM 28.9 °F 17.7 °F 25.0 °F 85% 29.83 in 10.0 mi WNW 15.0 mph - N/A   Overcast
10:53 PM 28.0 °F 16.1 °F 24.1 °F 85% 29.86 in 10.0 mi West 16.1 mph - N/A   Overcast
11:31 PM 26.6 °F 12.7 °F 23.0 °F 86% 29.82 in 10.0 mi WNW 20.7 mph - N/A   Overcast
11:53 PM 27.0 °F 14.7 °F 23.0 °F 85% 29.87 in 10.0 mi West 16.1 mph - N/A   Overcast